CAPE
1823 1860 2006 2001 2078 2162 2550 2675 2781 1852 1747 2829 1410 1900 2126 1904 2167 1786 1926 1649 2157 1947 1866 1890 1123 845 662 573 453 288 16 30 0 3 303 1361 2173 2506 3257 2916 2554 2202 2260 2379 2273 2400 2382 2225 2113 2081 2041 1861 2018 2003 1929 1788 1577 1574 1523 1588 1644 1625 1647 1702 1732 1809 1774 1659 1552 1385 1170 1250 1590 1519 1582 1586 1520 1452 1239 1180 1278 1275 1036 1276 1389
1750 1852 1737 1901 1813 1992 2588 1972 2971 1782 2172 1977 1714 1992 1957 1856 2168 1858 2038 1783 2058 2580 1936 1808 1149 996 644 590 246 89 4 0 0 0 394 660 1337 2046 3358 3332 2968 2446 2293 2426 2377 2411 2415 2393 2237 2226 2180 2079 2080 2042 1955 1916 1872 1753 1624 1345 1572 1606 1602 1578 1763 1847 1708 1818 1818 1541 1511 1429 1497 1525 1564 1604 1574 1474 1511 1431 1309 1366 1355 1344 1477
1686 1714 1912 2052 2128 2174 2437 2391 2599 2670 2126 2371 1644 1827 2053 2260 2060 2355 2269 2052 2122 1828 1459 1758 1300 502 698 381 295 92 46 0 0 5 206 380 956 1441 2920 3434 3037 2800 2530 2374 2400 2200 2360 2414 2329 2311 2308 2202 2186 2182 2051 2030 2051 1909 1880 1792 1654 1702 1634 1727 1784 1807 1894 1864 1917 1851 1727 1725 1642 1512 1354 1536 1584 1493 1444 1422 1313 1362 1364 1396 1250
2384 2206 2065 1905 1992 2542 2451 2016 1817 2292 1949 1729 2186 2362 2386 2474 2371 2355 1722 1496 1978 1699 1545 1518 1367 632 552 418 225 48 8 0 0 1 104 396 794 1618 2003 2749 3128 2858 2501 2551 2466 2195 2245 2363 2400 2265 2361 2285 2230 2278 1809 1961 2099 2065 1930 2007 1889 1677 1573 1730 1833 1902 1546 1778 1509 1438 1254 1714 1748 1664 1364 1372 1559 1627 1627 1603 1547 1543 1452 1431 1536
2471 2629 2419 2273 2114 2397 2194 2141 1996 2073 2224 2835 2746 2546 2113 2357 2764 1671 2530 2151 1840 1598 1644 1410 1067 828 564 406 149 65 4 0 0 0 77 449 544 1032 1054 1435 2116 2824 2477 2444 2486 2291 2302 2301 2304 2305 2345 2352 2121 1821 2096 2000 2024 2017 2176 2082 2037 1895 1859 1811 1834 1872 1774 1795 1710 1665 1966 1786 1756 1838 1327 1326 1557 1448 1563 1688 1724 1684 1758 1680 1658
2223 2308 2393 2149 2122 2641 2224 1976 2623 2261 2320 2202 2557 1967 1280 1526 1878 1610 1811 1769 1943 1842 1250 1217 1082 857 591 379 277 6 1 0 0 0 10 192 436 498 864 1145 1471 2156 2438 2527 2430 2298 2281 2299 2260 2293 2388 2227 1916 1840 2054 2136 2098 1964 2143 2140 2064 1959 2138 2149 1989 1839 1827 1977 1926 2017 2011 2002 2025 2003 2131 2188 2199 2044 1930 1915 1835 1854 1821 1852 1804
1954 2629 2442 2236 2484 2338 2266 1647 1810 2572 2345 2396 1607 1825 1601 1984 1943 2000 2380 2226 1940 1717 1204 1128 818 609 515 290 79 78 0 0 0 83 136 788 504 486 675 1038 1102 1044 2018 2112 2339 2436 2301 2210 2203 2332 2180 2153 1982 1940 1919 1646 1701 1662 1691 1846 2055 2027 1854 1788 1810 1894 1848 1782 1953 2064 2112 2029 2026 2131 2151 2129 2135 2188 2160 2175 2218 2180 2112 2158 2123
2136 2132 2975 2566 2235 2287 2251 2420 2960 2082 2520 2832 2439 1966 2055 1685 2169 1863 2255 2270 2094 1738 1029 757 554 415 507 246 56 11 4 0 2 35 218 250 544 911 847 792 1462 1819 2127 1320 2074 2530 2333 2349 2278 2380 2160 1997 1957 1986 2041 1929 1900 1944 1878 1914 1878 1800 1852 1930 1943 1952 2001 1876 1818 1787 1780 2059 2030 1939 1887 2021 2018 2093 2148 2103 2080 2229 2251 2240 2197
2203 2289 2155 2505 2710 1851 1849 2542 2824 2116 3117 3271 2417 1889 2261 2051 2361 2426 1782 2226 1962 1552 1039 739 491 438 241 60 0 0 0 0 94 229 260 472 568 994 1386 1003 879 1380 1764 1547 2069 1783 2416 2475 2343 2233 2110 2108 2034 2044 1848 1582 1585 1720 1770 1509 1706 1579 1716 1710 1736 1801 1898 1714 1689 1634 1526 1817 1840 1701 1573 1687 1848 1698 1770 1827 1782 2005 2040 2116 2077
2349 2361 2441 2119 2259 2128 1922 3424 2592 3009 2715 2937 2915 1723 2148 1885 2821 2551 1922 2395 2034 1321 745 405 137 227 79 79 0 3 0 0 70 195 354 290 347 716 1484 1232 1726 1407 1448 1218 1639 1676 2035 2356 2308 2239 2257 2258 2220 2106 1832 1570 1665 1580 1625 1367 1586 1592 1546 1473 1580 1610 1675 1743 1721 1626 1633 1482 1477 1357 1498 1659 1694 1502 1422 1524 1564 1682 1800 1815 1763
2284 2427 2615 2122 2046 2354 2277 2874 2617 3578 3474 3021 2531 2259 2271 2177 2133 3261 2256 2198 1518 1176 491 169 198 35 82 99 26 7 4 25 11 174 434 441 230 271 130 584 414 566 1038 1036 1307 1684 1938 1562 1935 2309 2514 2280 2128 1863 1729 1540 1470 1600 1613 1435 1549 1463 1533 1533 1509 1487 1621 1535 1473 1385 1587 1455 1496 1231 1128 1143 1275 1413 1353 1547 1542 1478 1523 1639 1681
2445 2492 2501 2429 2642 2477 2718 2896 2922 2827 2872 2703 2328 2568 2972 2917 2345 2886 3534 2730 1644 1066 674 202 50 0 123 87 63 80 10 36 117 72 287 512 304 192 171 119 80 113 203 280 610 1554 1669 1992 2149 1982 1377 2159 2012 1662 1742 1653 1511 1395 1311 1388 1606 1768 1566 1647 1616 1469 1464 1381 1331 1429 1337 1264 1314 1234 1150 1259 1167 1161 1102 1361 1370 1483 1778 1744 1732
2448 2377 2314 2924 3331 2714 2672 3320 2712 3209 3532 3117 2726 2395 2734 2940 3535 2820 2679 1531 1582 881 88 0 1 91 44 154 74 24 10 33 161 95 139 318 392 170 89 31 0 0 32 183 422 1345 2028 1840 1635 1498 2359 2090 2133 1975 1929 1825 1765 1443 1489 1474 1575 1491 1394 1662 1510 1447 1429 1238 1240 1279 1278 1254 1115 1280 1067 942 1049 1187 1104 1121 1273 1260 1635 1808 1784
2406 2386 2546 4059 3621 3398 3428 3662 3579 2397 2591 2862 3407 3559 3352 2762 2852 3405 2378 1266 896 977 307 4 152 32 103 26 26 28 165 60 9 59 84 126 261 214 53 3 4 6 12 66 190 280 163 188 673 1664 1970 2044 1537 2088 1560 1953 1814 1666 1446 1720 1644 1507 1642 1503 1344 1352 1364 1390 1311 1333 1183 1145 1091 1174 1129 1040 1028 1047 1206 1132 1126 1649 1831 1801 1696
2515 2449 2852 4235 3702 3592 3567 3836 3487 2982 3375 4041 3668 3926 3992 3417 2667 1581 1422 1420 1161 840 365 0 27 10 49 46 15 14 8 29 23 11 34 152 152 159 74 0 0 36 23 32 11 20 21 186 509 553 1007 1272 1474 1724 1544 2120 1612 1672 1648 1790 1470 1683 1437 1475 1537 1387 1376 1398 1358 1494 1372 1371 1209 1196 1201 1525 1500 1598 1706 1689 1782 1909 1825 1670 1640
2432 2280 2669 4002 3802 3408 3441 2904 3637 3558 3684 3242 3818 4238 4212 3743 2357 1506 1390 1162 1431 1059 201 6 104 8 0 52 11 38 21 13 64 38 44 150 125 217 108 46 1 1 3 8 20 71 60 149 525 613 651 530 527 1029 1286 1024 1483 1612 1890 1838 1574 1450 1401 1314 1170 1251 1313 1171 1282 1501 1581 1637 1564 1605 1521 1506 1530 1639 1562 1630 1515 1702 1614 1552 1664
2131 2368 2608 3855 4276 4265 3582 3432 3938 4203 3407 3232 3787 3213 3210 3107 2449 1585 1464 1096 1407 905 198 32 46 70 142 56 0 7 26 7 9 58 38 47 80 91 67 50 43 27 24 17 16 41 30 106 214 326 443 203 294 426 288 747 667 101 737 1443 1498 1490 1428 944 907 1135 1060 728 862 1203 1213 1362 1358 1402 1337 1129 848 734 1038 1187 1208 978 822 855 882
2128 2290 2643 3615 4375 4313 3799 3919 3864 4040 3793 3128 3106 3106 3323 3152 1910 1590 1482 1479 1389 850 312 132 4 43 340 547 709 570 65 0 3 3 87 86 63 71 96 67 54 24 40 13 17 16 21 43 82 134 77 91 96 176 128 116 326 175 12 464 1352 1317 1216 1028 842 498 671 629 259 462 521 370 545 542 134 73 103 228 168 616 564 337 416 441 369
1964 2249 2639 3047 4169 4432 4440 3456 3238 3502 4038 3745 3603 3238 2800 2604 1542 1580 1463 1593 1541 1249 530 180 90 5 46 95 191 104 16 12 32 93 59 64 92 64 44 94 56 19 11 46 0 12 14 21 25 23 67 57 59 103 79 104 142 48 0 211 454 819 930 1159 892 28 46 138 163 416 350 170 12 0 4 0 270 100 70 86 139 93 174 243 339
1937 2163 2665 3032 3238 4380 4751 3428 3078 2882 3524 3513 3404 3132 2907 2565 1689 1712 1699 1764 1784 1607 636 215 24 148 0 1 20 0 187 70 47 11 93 100 53 30 49 60 19 52 26 0 4 2 8 11 5 29 70 62 46 35 11 0 0 0 0 100 6 14 365 718 622 261 93 18 2 0 240 329 583 332 104 305 298 279 325 223 79 184 246 71 107
2565 2086 2708 2860 2933 3470 4641 4314 3091 3242 3174 3193 3178 2919 3209 2820 2142 2036 2000 2053 2146 1609 977 710 400 141 8 56 162 50 72 78 151 112 113 18 39 39 8 46 32 22 0 6 1 18 9 2 18 14 37 118 18 0 2 31 60 75 5 56 125 3 0 0 23 0 0 17 15 19 20 39 50 115 218 239 191 195 241 236 312 354 309 349 243
2965 2406 2668 2992 2952 3021 3228 4285 4248 3400 3049 2954 3127 2964 3510 2791 2359 2077 1978 1993 2014 1719 1238 824 412 399 238 450 319 321 208 70 74 79 25 108 146 49 22 23 10 20 32 0 0 0 3 6 4 0 0 10 34 0 0 26 138 44 0 64 624 197 317 99 0 0 0 0 0 0 0 0 12 53 64 101 137 175 209 223 255 280 312 361 388
2803 2346 2222 2687 2811 2884 2813 2855 3098 3359 3552 3173 3216 3088 3189 2776 2383 2218 2208 2180 2158 1973 1393 799 401 414 529 652 490 270 608 177 2 73 30 73 27 25 5 14 2 0 11 37 9 0 4 0 0 2 84 0 1 0 0 10 40 771 429 18 919 1137 1142 1244 912 86 0 0 0 3 29 39 17 22 50 71 99 131 137 142 208 332 425 446 448
2644 2183 2198 1909 2468 2752 2730 2370 2726 3124 3624 3486 3082 3108 2902 2396 2381 2299 2439 2369 2217 2018 1722 941 682 380 559 527 353 337 286 81 88 79 194 255 156 6 188 147 20 8 19 63 8 17 4 0 0 0 0 1 1 6 0 0 74 950 519 499 863 1130 1374 1542 1265 1314 1196 634 498 257 107 126 140 148 190 327 335 276 146 83 40 36 51 112 191
2523 2241 2060 2216 2285 2851 2890 2520 2446 2786 3319 3343 3225 3105 3089 2439 2290 2297 2350 2385 2383 2278 1898 1230 774 767 51 435 226 55 188 77 81 92 18 120 312 294 180 72 50 26 28 9 34 0 0 4 10 0 0 1 5 29 27 0 18 670 822 1976 362 779 1133 1055 1225 1224 1308 1194 1126 981 794 542 464 530 461 364 272 338 294 256 192 67 12 2 7
2726 2562 1939 2052 2254 2648 3124 3021 2804 2834 3157 3557 3848 3050 2980 2819 2456 2633 2380 2554 2440 2305 1991 1290 1242 1032 441 62 316 157 141 232 26 145 261 174 85 98 318 128 24 42 18 28 12 1 0 0 3 15 0 0 0 50 208 164 27 996 393 796 872 634 549 1042 1108 1108 1034 1136 1131 1157 1068 941 966 961 962 884 894 918 886 894 851 761 704 644 568
2980 2754 2568 2039 2290 2492 3059 3232 3120 3057 3219 3342 3590 3430 3300 3135 2629 2682 2515 2550 2619 2218 1654 1038 1115 1141 845 468 242 242 87 430 166 0 112 233 33 128 247 107 1 0 89 64 65 15 2 0 0 6 2 42 7 29 62 110 274 1572 1281 509 0 604 906 688 1099 942 936 892 932 1072 1002 1011 1023 1002 997 861 846 840 819 890 901 810 836 872 864
2951 2909 2762 2370 2468 2747 3060 3464 3576 3115 3332 3512 3492 2947 3099 3075 2954 2690 2930 2458 2660 2372 1835 1450 1290 1395 971 536 633 456 126 110 168 235 18 183 290 236 269 247 283 74 46 101 20 23 0 3 0 0 24 79 84 87 42 21 83 493 903 2 44 2185 553 772 871 896 697 541 638 783 727 778 845 805 801 837 839 875 871 856 898 899 968 982 986
2557 3030 3067 3052 2685 2911 3128 3432 3776 3452 3264 3569 3454 2985 2953 3024 2799 2964 2882 2266 2609 2304 1701 1618 1689 1303 1082 851 700 478 424 218 176 256 378 283 333 386 312 287 362 405 165 57 62 2 1 1 3 19 98 114 330 105 80 78 430 333 5 0 0 1153 795 423 403 493 554 430 302 294 426 473 507 547 530 558 560 601 697 697 766 776 827 885 932
2278 2497 3139 3418 3333 3367 3121 3408 3557 3467 3062 3190 3450 3308 3166 3017 2956 3066 3042 2733 2640 2489 2202 1905 1677 1631 1260 1036 1070 535 458 675 391 248 384 549 457 457 465 352 464 280 310 291 186 56 42 1 0 152 482 221 285 191 202 60 200 31 1 42 21 405 457 68 188 236 238 284 190 126 130 174 186 204 201 231 219 264 279 424 492 464 575 630 730
2827 2674 2993 3315 3579 3420 3489 3631 3462 3231 3177 2895 3247 3373 3306 3248 3041 3014 3018 3035 2856 2716 2542 2133 1759 1795 1652 1292 1270 1056 703 771 875 466 401 700 637 450 525 526 420 465 567 403 376 321 10 89 0 82 218 394 112 69 71 145 260 17 0 44 59 320 0 253 19 24 133 101 115 60 19 7 2 1 10 38 26 227 231 343 385 488 606 688 769
3091 2982 2823 3121 3495 3634 3617 3490 2834 3009 3257 2978 3045 3399 3444 3353 3189 2804 2713 3100 3068 2981 2537 2039 1710 1848 1812 1415 1435 1318 1058 786 697 571 378 776 736 449 500 659 640 511 527 671 522 365 161 9 31 2 73 172 80 68 143 69 159 0 0 101 850 0 26 167 0 6 1 17 6 7 0 0 0 0 1 14 26 165 162 272 418 510 553 602 625
3166 3304 3258 3149 3435 3767 3653 3621 3024 2989 3373 3360 3123 3338 3577 3587 3650 3228 2838 3041 3290 3122 2880 2282 1827 1905 1964 1603 1465 1514 1346 1124 971 717 407 708 827 511 538 601 602 680 700 577 604 459 392 108 74 60 5 133 67 77 154 133 373 97 6 137 406 157 3 5 156 0 2 0 0 0 0 0 0 0 0 3 14 75 127 230 278 248 265 362 470
3112 3302 3602 3533 3449 3589 3667 3835 3474 2992 3432 3556 3302 3112 3480 3731 3828 3482 3151 2956 3395 3360 3006 2651 2212 1874 1928 1980 1532 1518 1553 1310 1035 581 536 778 819 522 530 599 648 876 792 832 600 645 443 316 240 13 123 5 181 184 226 145 176 275 23 48 174 214 209 75 19 255 0 0 0 0 0 0 0 0 0 0 0 18 66 122 144 86 114 211 288
3439 3218 3532 3788 3851 3811 3766 3767 3890 3320 3551 3624 3641 3442 3424 3704 3875 3564 3495 3139 3300 3394 3005 2759 2343 2140 2058 2068 1849 1505 1474 1329 1091 634 388 686 848 552 520 581 691 676 840 765 853 668 493 467 446 234 90 198 0 314 125 184 273 248 298 208 186 230 227 194 112 41 0 0 0 0 0 0 0 0 0 0 0 1 4 6 1 0 16 24 21
3194 3670 3504 3828 4132 4135 3855 3821 3924 3824 3573 3712 3846 3596 3557 3659 3880 3891 3695 3534 3246 3150 2920 2757 2521 2339 2174 2212 2116 1639 1528 1416 1202 885 494 630 784 894 684 784 817 745 788 866 721 886 780 634 534 323 164 224 99 230 304 262 160 196 263 412 397 346 264 202 281 231 758 0 0 0 0 0 0 0 0 0 0 0 0 0 0 0 0 0 0
2692 3372 3764 3756 4145 4361 4080 3956 3984 4009 3776 3807 4144 4048 3762 3584 3927 3879 3818 3684 3438 3323 3137 2966 2667 2644 2472 2296 2282 1837 1522 1455 1477 951 580 666 763 933 888 910 918 785 682 970 861 664 817 736 614 415 325 327 393 352 396 446 412 364 439 514 458 635 546 272 124 113 602 210 85 0 0 0 0 0 0 0 0 0 0 0 0 0 0 0 0
2857 2623 3718 3816 3930 4438 4442 4205 4099 4122 4192 4129 4121 4095 3760 3423 3725 3932 3889 3740 3652 3464 3489 3250 2942 2823 2745 2562 2485 2027 1611 1534 1547 1325 932 725 808 1012 1116 1074 1019 936 827 956 1020 972 607 867 823 556 403 349 345 459 498 466 517 507 600 906 806 530 534 506 356 126 479 81 83 39 7 0 0 0 0 0 0 0 0 0 0 0 0 0 0
2997 2741 3041 3970 3966 4224 4626 4408 4159 4323 4401 4244 4336 4372 4076 3728 3802 4047 3772 3651 3595 3576 3569 3371 3201 3103 2928 2875 2698 2208 1774 1639 1650 1646 1172 776 794 900 1150 1142 1053 1173 910 877 1110 967 884 830 813 698 544 525 599 604 583 551 532 453 485 538 663 700 1111 1031 888 606 469 210 55 53 58 69 19 57 0 0 0 0 0 0 0 0 0 0 0
3241 3059 2899 3634 4021 3979 4403 4540 4449 4406 4420 4375 4485 4525 4455 4020 3798 3993 4088 3676 3558 3535 3636 3551 3290 3058 3056 3074 2800 2366 1915 1755 1780 1856 1469 1031 902 924 1006 1073 1116 1206 1097 941 1037 1084 995 909 783 734 661 737 727 598 615 745 976 839 543 372 306 354 868 1622 1536 1326 773 690 423 58 74 2 0 30 0 0 0 0 0 0 0 0 0 0 0
3492 3303 3172 3219 3914 4102 4246 4567 4546 4411 4361 4423 4242 4398 4610 4495 3911 3814 4207 3837 3435 3424 3638 3494 3344 2949 2904 2954 2787 2524 2280 1796 1555 1748 1335 1176 1062 1081 1202 1191 1211 1246 1286 1122 1123 1265 1094 915 823 840 727 698 758 969 675 982 1006 744 787 638 655 586 729 939 1118 992 827 706 492 95 36 95 3 2 16 133 305 0 0 0 51 2 0 0 0
3772 3671 3690 3414 3535 4148 4264 4338 4470 4436 4337 4335 4060 3977 4182 4611 4266 3757 3952 4117 3740 3374 3585 3630 3211 3148 2913 2741 2775 2149 1890 1599 1455 1507 1249 1056 1043 1098 1404 1305 1284 1316 1404 1295 1275 1308 1235 1098 897 866 801 720 664 817 490 703 1540 1278 999 683 719 1002 881 870 777 1047 673 599 159 276 290 53 0 0 0 0 0 0 0 194 0 0 0 0 0
3952 4257 3803 3412 3397 3743 4053 4192 4337 4344 4306 4336 3914 3754 3936 4026 4308 4162 3821 4014 3997 3593 3461 3771 3617 3283 3065 2747 2780 2649 1994 1735 1483 1480 1296 1015 960 938 1210 1241 1273 1356 1351 1293 1307 1360 1367 1155 1134 971 791 794 711 459 430 616 719 1204 1225 1173 1030 1034 736 320 187 285 321 453 386 316 307 97 0 0 0 0 0 1 0 0 0 0 0 0 0
4038 3709 3746 3752 3857 3472 3782 4027 4017 4234 4424 3984 3746 3673 3649 3714 3800 4305 4100 3735 3894 3871 3575 3525 3613 3428 3180 3055 2808 2682 2656 2421 2149 1581 1348 1050 934 950 893 979 986 1008 1080 1545 1467 1304 1390 1339 1174 963 765 712 719 587 197 312 960 646 567 932 1202 1062 594 279 254 228 547 159 207 210 50 0 0 0 0 0 0 0 0 0 0 0 0 0 0
3543 4018 4229 3982 3959 3783 3782 4085 4012 3981 4215 3850 3709 3527 3424 3437 3487 3540 3870 3958 3762 3941 3812 3539 3646 3646 3408 3199 3042 2768 2670 2179 2027 2132 1937 1217 924 927 839 770 865 897 819 875 1211 1666 1243 1337 1174 1114 857 778 672 613 247 430 519 342 539 792 692 631 628 324 344 105 79 206 151 3 0 0 0 0 0 0 0 0 0 0 0 0 0 0 0
3854 4017 3993 4213 4213 4159 3922 4000 4271 4274 4281 3893 3734 3473 3360 3269 3261 3265 3767 3926 3994 3806 3902 3870 3740 3648 3615 3405 3185 3136 2915 2979 2459 2268 2195 1883 1400 1011 946 1234 1408 1352 835 764 768 766 1464 1519 1359 1143 1026 904 888 667 643 601 557 634 471 577 425 308 218 299 231 245 221 9 0 0 0 0 0 0 0 0 0 0 0 12 0 0 0 0 0
4035 3999 4088 4335 4340 4198 4065 3857 4071 4230 4033 3814 3750 3628 3338 3197 3073 2979 3728 3706 3808 3952 3953 3988 3958 3667 3726 3602 3511 3377 3251 3556 2576 2343 2370 2115 1836 1412 1270 1089 1083 1277 1330 999 758 634 886 938 1205 1258 1164 945 911 844 793 843 832 971 653 489 374 327 316 224 293 106 0 0 0 0 0 0 0 0 0 0 0 0 0 0 0 0 0 0 0
4069 4103 4226 4205 4261 4229 4315 4237 3796 3688 3419 3273 3492 3599 3484 3184 2954 2840 3394 3690 3652 3750 4008 4073 3953 3940 3772 3829 3796 3517 3384 3553 2696 2110 2122 2350 2078 1651 1425 1232 1080 1077 1183 981 677 448 351 468 631 689 831 768 550 851 994 847 996 857 538 566 503 498 421 76 0 0 0 0 0 0 0 0 0 0 0 0 0 0 0 0 0 0 0 0 0
4099 4150 4035 4026 3997 3665 3969 3995 3522 3578 3526 3431 3184 3296 3467 3383 3078 2750 3288 3619 3663 3712 3871 4077 3947 3846 3854 3918 3980 3759 3381 3550 2980 2269 1806 2016 2359 1975 1612 1356 1184 981 812 845 638 430 184 113 260 216 406 336 313 542 679 726 1046 706 573 360 310 94 2 0 0 0 0 2 0 0 0 0 0 0 0 0 0 0 0 0 4 0 0 0 0
3934 4143 4042 3976 3912 3742 3276 3606 3552 3657 3505 3421 3089 3045 3219 3278 3191 3007 3288 3478 3595 3731 3751 3854 4001 3927 3783 3253 3748 3898 3556 3935 3038 2516 1827 1755 2508 2284 1900 1558 1344 1105 909 737 735 579 242 232 239 304 360 443 378 291 244 500 312 287 715 296 137 24 1 4 4 0 0 0 2 0 0 0 0 0 0 0 0 0 0 0 0 0 0 0 0
4079 4031 3994 4006 3961 3951 3860 3785 3221 3198 3562 3491 3232 3138 3049 2969 3052 3056 3281 3400 3500 3612 3609 3675 3807 3755 3790 3476 3254 3460 3777 3595 3179 2759 2086 1839 2499 2478 2185 1790 1478 1276 1127 807 673 789 344 308 380 412 398 487 460 392 310 204 37 369 286 238 44 0 0 0 0 0 0 0 0 0 0 0 0 0 0 0 0 0 0 0 0 0 0 0 0
Wind_Speed
8 9 9 7 3 12 8 7 9 7 9 9 7 8 9 10 13 12 11 7 10 10 10 8 11 10 8 7 7 8 nan nan nan nan 7 7 9 10 13 13 13 13 13 13 14 15 14 13 12 10 10 9 9 9 8 8 10 11 11 11 11 12 13 13 13 14 14 14 15 16 17 17 17 16 16 15 14 13 13 13 12 11 10 10 9
7 9 7 7 7 7 4 8 12 8 6 11 8 8 9 9 9 10 7 10 9 10 8 12 8 9 7 7 5 nan nan nan nan nan 7 7 6 7 13 13 13 13 14 14 15 15 15 13 12 11 10 10 10 10 10 9 7 9 8 9 10 10 11 11 12 13 13 14 14 15 14 15 15 15 15 15 14 13 12 12 11 11 10 9 9
7 7 8 7 7 5 1 7 7 6 12 7 9 7 7 8 7 7 9 8 8 9 7 7 9 8 7 6 7 nan nan nan nan nan 8 6 9 10 11 14 14 14 14 15 15 15 14 13 12 12 11 10 10 9 10 10 8 9 9 8 10 10 10 10 11 12 13 13 13 12 12 13 13 13 12 12 12 12 12 11 11 10 10 9 8
9 6 9 6 5 3 5 8 7 9 9 8 7 7 6 7 8 7 7 8 7 8 7 9 7 7 7 7 6 nan nan nan nan nan 7 5 8 10 9 11 13 14 13 14 14 13 12 11 11 11 10 9 8 8 9 10 11 11 11 11 10 11 10 10 9 9 9 10 10 10 10 10 9 8 8 9 9 10 10 10 10 9 9 8 8
7 8 8 6 7 7 11 10 9 4 9 6 7 8 9 9 11 9 8 7 8 6 6 6 7 5 5 5 5 nan nan nan nan nan nan 9 7 8 10 11 12 15 15 14 14 12 12 10 10 10 9 8 7 8 9 11 12 12 11 11 11 10 9 9 10 10 9 9 8 8 8 7 7 6 6 6 6 7 8 8 8 9 8 7 7
7 8 9 6 11 7 4 11 7 13 9 10 10 11 8 5 5 7 7 6 5 6 7 6 6 7 7 6 5 nan nan nan nan nan nan 3 4 7 8 11 11 12 13 14 13 12 11 10 10 9 8 7 7 9 10 9 9 11 10 10 10 10 10 9 9 10 10 9 9 9 8 8 8 7 6 5 4 4 5 6 6 6 6 5 5
7 8 7 7 6 7 9 8 9 8 10 8 6 7 8 9 7 5 6 6 6 7 6 7 7 7 7 7 nan nan nan nan nan nan 7 6 5 5 8 8 9 8 8 10 13 12 11 11 10 9 8 8 7 7 9 7 8 10 10 10 9 9 9 10 9 8 9 9 10 11 10 9 9 9 9 8 7 7 6 5 5 5 5 4 3
7 7 8 7 8 3 8 6 9 8 8 8 9 11 7 5 5 5 6 5 7 7 7 8 8 8 8 10 nan nan nan nan nan nan 7 5 6 6 7 8 8 9 10 8 9 11 13 11 11 10 9 10 9 7 7 7 8 8 6 7 9 8 7 8 9 9 10 10 10 10 10 10 10 9 8 8 8 8 8 6 5 4 3 4 4
7 8 9 10 7 10 14 12 8 8 6 9 11 11 9 10 7 6 5 5 5 7 6 7 9 10 10 nan nan nan nan nan nan 9 8 6 8 6 6 7 7 7 7 6 7 7 12 13 12 11 10 10 8 9 9 8 7 7 9 10 9 10 10 10 11 11 11 11 10 9 9 10 10 10 8 7 7 7 6 6 5 4 3 3 3
7 9 9 10 10 13 3 3 7 6 8 10 11 11 11 9 9 8 6 6 5 5 5 5 6 7 nan nan nan nan nan nan nan 8 8 7 8 8 6 7 7 8 7 9 7 5 6 10 12 12 11 10 11 12 10 9 9 10 10 10 11 11 11 11 12 12 11 11 11 11 11 10 8 7 9 9 7 7 6 6 5 5 4 3 2
8 9 10 11 11 9 7 12 7 6 9 11 9 12 10 9 9 9 8 6 5 5 5 5 6 nan nan nan nan nan nan nan nan 6 7 7 8 11 11 7 8 8 7 7 6 6 6 7 8 8 9 12 10 11 12 10 9 10 10 10 10 11 11 11 11 11 12 12 13 9 8 9 7 7 7 5 5 6 6 7 7 7 7 6 5
8 9 11 11 10 7 4 8 8 8 10 12 12 5 12 12 11 10 9 8 9 10 8 6 nan nan 6 nan nan nan nan nan 6 nan 7 6 6 6 10 11 nan 9 10 10 9 9 8 6 6 8 9 13 13 12 12 11 11 11 11 10 11 11 11 11 11 11 11 11 13 15 14 15 13 11 11 9 8 8 8 8 9 10 10 10 10
8 9 11 12 11 10 13 9 9 7 8 13 15 18 14 10 8 10 11 10 10 11 nan nan nan nan nan 2 nan nan nan nan 4 nan 7 6 7 7 nan nan nan nan nan 10 11 10 9 10 10 8 8 12 13 15 14 14 15 13 13 13 12 11 12 12 13 13 15 14 11 11 17 15 17 16 15 14 13 12 12 11 10 10 11 11 12
8 10 11 12 12 11 10 10 9 11 13 14 14 13 11 10 10 10 12 11 11 14 10 nan 14 nan 12 nan nan nan 3 nan nan nan nan 6 6 5 nan nan nan nan nan nan 12 12 13 12 14 12 10 11 13 13 14 15 17 16 16 15 15 15 15 15 16 17 19 18 22 20 20 20 19 19 18 19 18 16 15 15 13 12 11 11 12
8 10 11 12 13 11 11 11 11 8 10 13 14 14 11 11 11 12 11 10 11 10 13 nan nan nan nan nan nan nan nan nan nan nan nan 6 5 5 nan nan nan nan nan nan nan nan nan 12 13 13 13 13 17 14 14 15 19 20 18 17 18 18 20 20 19 20 21 23 23 24 23 23 23 22 20 19 19 19 19 18 17 16 15 14 15
9 10 11 12 13 14 14 10 10 11 8 8 13 12 10 10 11 12 10 11 11 10 11 nan 14 nan nan nan nan nan nan nan nan nan nan 7 6 5 5 nan nan nan nan nan nan nan nan 11 12 12 11 12 14 17 16 18 22 22 23 23 22 21 22 22 23 24 24 25 25 24 24 24 25 25 25 23 22 22 22 22 21 20 20 19 18
8 10 11 11 13 13 12 11 10 11 12 14 14 11 10 10 11 11 10 10 8 9 10 nan nan nan 10 nan nan nan nan nan nan nan nan nan nan nan nan nan nan nan nan nan nan nan nan 9 10 11 11 12 14 14 16 19 20 21 22 23 23 23 23 24 24 24 24 24 24 25 25 26 26 25 25 24 23 22 22 22 22 21 21 20 19
6 8 10 11 12 13 13 11 11 11 11 11 12 11 9 8 11 10 10 8 7 9 9 10 nan nan 12 10 7 8 nan nan nan nan nan nan nan nan nan nan nan nan nan nan nan nan nan nan nan 9 nan nan nan 13 14 16 18 20 nan 21 24 23 23 22 22 24 25 24 25 25 25 25 25 25 24 nan 23 22 22 22 21 21 21 21 21
6 8 9 11 12 13 13 13 11 11 12 12 12 11 9 9 11 9 8 7 7 9 8 11 nan nan nan nan 12 12 nan nan nan nan nan nan nan nan nan nan nan nan nan nan nan nan nan nan nan nan nan nan nan 13 nan 15 17 nan nan 24 23 23 22 21 21 nan nan 24 25 26 26 25 nan nan nan nan 24 nan nan nan 22 nan 22 22 22
5 6 9 11 12 12 13 13 12 11 11 12 13 11 8 8 10 9 7 7 9 9 9 10 nan 10 nan nan nan nan 7 nan nan nan nan nan nan nan nan nan nan nan nan nan nan nan nan nan nan nan nan nan nan nan nan nan nan nan nan nan nan nan 20 20 21 20 nan nan nan nan 25 26 26 26 27 26 25 24 24 23 nan 22 22 nan 22
5 7 9 11 12 12 13 13 13 12 11 11 12 12 11 9 9 8 9 9 9 9 9 10 10 12 nan nan 9 nan nan nan 10 9 10 nan nan nan nan nan nan nan nan nan nan nan nan nan nan nan nan 13 nan nan nan nan nan nan nan nan 19 nan nan nan nan nan nan nan nan nan nan nan nan 24 24 24 24 24 24 24 24 24 24 24 24
4 6 8 10 11 12 13 14 14 13 11 11 11 12 12 11 11 10 10 10 9 10 10 11 12 9 12 11 11 10 10 nan nan nan nan 10 9 nan nan nan nan nan nan nan nan nan nan nan nan nan nan nan nan nan nan nan 14 nan nan nan 20 20 20 nan nan nan nan nan nan nan nan nan nan nan nan 20 21 22 22 23 24 25 26 27 27
3 4 7 9 10 11 12 14 13 12 11 10 10 11 12 12 11 11 10 10 9 10 11 11 11 10 11 11 12 12 11 12 nan nan nan nan nan nan nan nan nan nan nan nan nan nan nan nan nan nan nan nan nan nan nan nan nan 13 23 nan 22 21 22 23 22 nan nan nan nan nan nan nan nan nan nan nan nan 21 22 23 24 25 25 26 27
1 3 6 9 8 9 11 12 13 13 12 10 9 10 10 11 11 11 9 9 8 8 9 10 11 11 12 13 14 14 15 nan nan nan 8 10 10 nan 8 9 nan nan nan nan nan nan nan nan nan nan nan nan nan nan nan nan nan 24 22 24 25 26 26 26 26 25 24 24 23 22 22 21 20 20 20 21 21 21 22 nan nan nan nan 24 26
1 3 5 8 7 8 9 10 12 13 12 10 8 9 8 10 10 12 10 9 7 7 8 9 11 11 nan 14 15 nan 15 nan nan nan nan 12 11 10 10 nan nan nan nan nan nan nan nan nan nan nan nan nan nan nan nan nan nan 24 21 26 28 29 28 28 28 27 26 26 25 25 25 25 24 24 24 24 24 24 23 23 22 nan nan nan nan
3 3 4 7 7 8 9 10 10 12 13 12 11 9 8 9 10 10 11 9 7 8 8 9 10 13 14 nan 16 16 16 17 nan 14 16 16 nan nan 12 12 nan nan nan nan nan nan nan nan nan nan nan nan nan nan 14 15 nan 27 27 20 29 29 30 30 30 30 29 28 28 27 27 27 26 26 26 25 25 24 24 24 23 23 23 24 25
4 4 5 6 9 9 10 10 11 12 14 15 13 11 9 8 8 9 9 10 8 7 7 9 10 13 15 16 16 15 nan 15 17 nan 15 17 nan 15 15 14 nan nan nan nan nan nan nan nan nan nan nan nan nan nan nan 18 18 27 25 20 nan 31 31 32 31 31 31 30 29 29 28 28 29 29 29 29 29 29 28 28 27 27 26 26 27
7 6 7 7 9 10 11 11 11 13 14 16 16 14 11 9 8 8 9 9 10 9 7 8 10 13 15 16 16 16 16 17 17 17 nan 16 17 16 16 15 14 nan nan 14 nan nan nan nan nan nan nan nan nan nan nan nan nan 29 26 nan nan 28 32 33 33 33 33 32 31 30 31 31 33 34 34 34 35 35 34 34 33 32 31 30 30
9 9 9 10 10 11 11 12 12 13 15 15 17 17 15 12 9 8 8 9 10 10 9 8 9 12 13 16 16 17 16 18 17 18 19 18 17 17 16 17 15 13 14 nan nan nan nan nan nan nan nan 16 17 17 nan nan 24 29 nan nan nan 29 34 35 37 35 34 34 33 33 34 35 36 38 38 38 38 38 37 38 38 37 36 34 33
10 11 11 12 12 12 12 12 13 14 15 15 16 17 17 14 12 10 8 8 10 10 10 9 10 10 13 14 16 17 18 19 20 20 21 22 21 19 16 16 16 15 12 12 15 nan nan nan nan 19 18 18 19 19 23 nan 28 nan nan nan nan 33 40 nan 38 37 35 34 34 34 36 36 38 39 40 41 41 40 40 39 39 38 37 36 35
12 12 13 13 13 14 13 14 14 15 15 16 16 16 18 16 15 12 11 9 9 10 11 10 10 12 13 15 16 16 18 19 20 22 23 25 23 21 18 17 18 17 15 14 13 16 nan nan nan nan 22 22 20 nan nan 24 29 nan nan nan nan 40 nan 39 nan nan 35 34 34 nan nan nan nan nan nan nan nan 42 40 39 37 35 34 33 33
14 15 14 14 15 15 16 15 15 16 17 17 17 17 17 17 16 14 14 12 10 10 11 12 11 13 13 14 17 17 17 19 21 24 25 25 24 23 21 20 20 20 19 18 16 16 19 nan nan nan nan 24 nan nan 26 nan 31 nan nan 32 36 nan nan 38 nan nan nan nan nan nan nan nan nan nan nan nan nan 40 38 36 34 32 31 31 31
17 17 17 16 16 17 17 16 16 17 18 18 18 18 18 18 17 16 14 15 13 11 11 12 13 13 14 15 16 19 19 20 22 24 26 26 25 24 24 23 23 24 23 21 20 17 18 17 nan nan nan 24 nan nan 25 27 31 nan nan 32 36 35 nan nan 39 nan nan nan nan nan nan nan nan nan nan nan nan nan 37 35 33 32 31 30 29
19 19 19 18 17 18 18 18 17 18 20 20 19 19 19 18 19 18 15 16 15 12 12 12 13 13 15 16 17 20 21 21 22 25 25 27 28 27 27 26 26 25 24 23 21 19 19 19 17 nan 20 nan 22 26 26 27 30 32 nan nan 35 36 35 nan nan 39 nan nan nan nan nan nan nan nan nan nan nan nan nan 35 33 nan 30 30 29
20 20 20 20 19 18 18 19 19 19 21 21 20 20 20 20 19 19 18 17 17 15 13 13 13 14 15 16 18 19 20 22 23 23 25 27 28 28 28 28 28 27 26 24 22 22 20 20 19 18 nan 22 nan 27 27 27 28 33 34 35 36 36 36 34 34 nan nan nan nan nan nan nan nan nan nan nan nan nan nan nan nan nan nan nan nan
21 21 20 20 20 19 19 19 20 21 21 22 22 21 21 21 20 20 19 18 17 16 15 13 13 14 15 16 17 19 20 22 23 23 23 25 27 27 28 29 29 28 25 26 25 22 23 21 23 19 22 22 nan 24 29 29 30 33 34 35 36 35 35 37 36 31 41 nan nan nan nan nan nan nan nan nan nan nan nan nan nan nan nan nan nan
22 22 22 20 19 19 19 19 20 21 21 22 22 22 21 21 21 20 20 19 18 17 16 14 13 14 15 16 17 18 20 21 22 23 24 26 26 27 28 28 30 29 25 24 26 26 25 26 25 27 21 24 25 26 28 31 32 33 35 34 36 35 35 34 33 34 43 45 nan nan nan nan nan nan nan nan nan nan nan nan nan nan nan nan nan
23 22 23 21 19 19 19 19 19 20 21 21 22 21 21 21 21 21 21 20 19 18 17 16 15 14 14 16 17 18 20 21 22 23 24 26 26 27 28 28 30 30 27 24 26 29 30 30 30 31 30 27 28 28 31 32 33 35 35 36 36 34 35 35 34 33 38 nan nan nan nan nan nan nan nan nan nan nan nan nan nan nan nan nan nan
22 21 21 21 18 17 18 18 18 18 19 20 21 21 21 20 20 21 21 21 20 19 18 17 17 16 15 16 16 17 19 20 22 24 25 27 26 27 27 27 29 30 30 27 28 30 32 34 34 33 32 32 30 31 33 34 34 34 36 36 34 33 33 34 34 33 32 34 nan nan nan nan nan nan nan nan nan nan nan nan nan nan nan nan nan
20 19 18 18 17 15 16 16 16 16 17 18 19 19 19 19 19 20 20 20 20 19 19 18 17 17 17 17 17 17 18 20 22 23 26 27 27 27 27 27 27 29 30 31 32 32 32 33 34 35 34 33 34 32 35 37 37 38 36 34 32 32 33 35 34 32 31 31 35 nan nan nan nan nan nan nan nan nan nan nan nan nan nan nan nan
16 16 15 14 15 15 14 14 15 16 17 17 17 18 18 19 18 18 19 19 19 19 19 18 18 18 18 18 17 17 18 19 23 24 26 28 29 29 29 29 29 29 30 32 33 33 33 33 34 34 34 35 35 36 37 39 39 38 37 34 31 30 33 35 33 31 34 36 37 nan nan nan nan nan nan 44 46 nan nan nan nan nan nan nan nan
15 14 13 13 13 14 13 14 15 15 15 15 18 22 20 19 19 17 18 18 19 19 18 18 18 18 18 18 19 19 21 23 24 26 27 30 31 32 31 31 31 30 30 32 34 35 36 36 36 37 36 37 37 39 38 38 38 37 36 36 33 32 34 33 38 36 36 35 37 39 40 nan nan nan nan nan nan nan nan 42 nan nan nan nan nan
14 14 13 12 12 12 13 14 15 14 15 15 22 23 24 23 20 20 18 18 19 19 18 19 19 19 18 18 18 23 23 25 26 28 28 30 33 33 36 34 33 33 33 33 34 37 39 39 39 39 39 38 38 38 40 39 40 40 38 37 35 36 35 34 33 36 37 38 40 39 40 nan nan nan nan nan nan nan nan nan nan nan nan nan nan
14 13 14 13 12 12 13 14 14 14 13 16 23 26 27 27 25 22 20 19 20 20 19 20 20 21 21 20 20 20 23 25 27 29 30 32 33 34 36 37 36 35 34 35 36 38 40 41 42 42 41 40 39 40 40 42 42 42 42 40 40 38 38 36 35 34 38 39 39 40 nan nan nan nan nan nan nan nan nan nan nan nan nan nan nan
14 14 15 15 15 14 14 14 14 14 13 18 24 27 28 29 29 26 21 21 21 21 21 22 23 23 23 23 22 23 22 30 29 30 32 33 34 37 37 38 38 38 36 34 34 36 40 42 43 44 45 43 42 42 42 42 44 44 46 44 42 41 38 36 34 34 nan 41 40 nan nan nan nan nan nan nan nan nan nan nan nan nan nan nan nan
16 15 16 17 17 16 16 16 15 14 14 18 26 27 28 29 31 29 24 23 21 21 22 24 25 26 26 26 26 26 25 30 29 31 34 35 36 35 36 36 36 37 38 39 38 36 35 40 44 45 47 47 45 45 46 46 46 45 48 48 47 42 41 38 36 36 37 nan nan nan nan nan nan nan nan nan nan nan nan nan nan nan nan nan nan
17 16 17 18 19 18 19 18 16 14 13 20 27 29 28 30 31 31 27 25 23 22 22 23 25 27 28 28 29 29 29 31 30 31 35 37 38 37 37 37 37 38 38 39 40 40 41 42 44 46 47 48 48 49 49 51 51 50 48 48 47 44 41 41 40 37 nan nan nan nan nan nan nan nan nan nan nan nan nan nan nan nan nan nan nan
17 18 18 18 20 20 20 20 17 15 15 21 28 30 31 31 34 31 31 30 27 25 25 26 26 26 28 30 30 30 32 32 35 37 37 39 39 39 39 38 38 38 38 39 41 43 43 45 46 48 49 50 53 52 53 54 54 54 55 54 52 50 47 nan nan nan nan nan nan nan nan nan nan nan nan nan nan nan nan nan nan nan nan nan nan
18 19 19 19 19 19 21 22 21 20 20 23 30 31 33 35 35 32 33 33 31 28 26 27 29 28 28 30 32 31 33 32 39 40 41 42 38 39 39 41 40 39 39 41 45 46 46 46 50 53 59 61 63 65 62 60 58 58 58 58 56 nan nan nan nan nan nan nan nan nan nan nan nan nan nan nan nan nan nan nan nan nan nan nan nan
18 18 20 20 20 21 23 24 25 24 23 27 35 33 35 38 38 34 34 35 34 32 29 29 29 29 29 31 34 34 34 35 45 43 44 44 40 39 38 41 43 42 42 43 46 48 53 59 59 60 62 65 66 67 67 66 64 60 59 60 58 nan nan nan nan nan nan nan nan nan nan nan nan nan nan nan nan nan nan nan nan nan nan nan nan
20 20 21 21 21 22 23 23 26 25 23 27 37 36 37 38 36 33 35 35 35 34 33 31 29 28 29 32 37 37 36 41 52 47 47 45 43 42 38 40 44 43 45 49 48 53 57 59 60 62 62 64 66 65 65 68 nan 61 58 58 nan nan nan nan nan nan nan nan nan nan nan nan nan nan nan nan nan nan nan nan nan nan nan nan nan
Wind_Direction
91 88 83 64 90 67 50 78 55 42 49 89 29 20 16 357 7 15 357 21 340 26 11 14 36 20 35 29 46 20 nan nan nan nan 2 357 23 17 21 20 15 18 24 24 30 30 29 24 18 18 4 358 351 354 348 350 346 337 335 335 333 330 329 327 324 321 325 322 321 323 324 324 323 322 320 318 315 313 310 311 317 322 321 323 324
98 101 90 94 60 72 60 41 59 46 20 52 26 21 358 7 355 8 357 8 328 26 4 26 13 16 12 34 34 nan nan nan nan nan 335 359 4 17 17 22 19 19 27 27 35 34 31 28 24 21 11 6 1 355 351 350 344 337 342 345 347 347 348 341 338 335 334 334 333 335 334 332 332 330 326 323 320 316 311 306 304 304 308 313 320
113 92 95 85 78 79 121 96 77 49 46 37 32 31 5 12 2 360 1 346 357 359 9 357 1 11 4 8 26 nan nan nan nan nan 336 355 353 14 11 17 20 19 24 29 36 41 36 32 29 28 22 19 12 0 355 354 348 345 346 354 1 1 1 356 351 348 346 344 342 343 340 341 344 340 340 337 334 330 325 320 312 307 300 297 304
137 112 96 81 72 79 51 48 80 59 65 26 40 19 15 3 3 3 354 4 354 1 0 355 350 4 355 9 358 nan nan nan nan nan 345 335 352 2 10 14 13 18 22 31 35 44 40 36 36 37 36 34 24 18 6 6 6 0 359 360 2 7 5 3 360 359 357 353 348 347 346 343 343 347 353 355 351 348 341 336 329 321 306 291 284
112 103 91 85 103 27 45 46 31 61 61 54 29 35 22 15 1 8 359 2 357 357 344 350 355 338 18 328 346 nan nan nan nan nan nan 336 354 0 7 11 9 13 21 29 33 40 41 36 39 38 39 41 36 30 22 20 19 15 10 10 7 7 5 8 9 6 5 359 353 336 307 323 341 5 8 10 9 14 3 354 348 340 330 308 283
101 87 82 62 59 67 25 65 6 29 29 35 28 33 23 16 12 8 343 10 343 351 347 354 337 349 358 335 349 nan nan nan nan nan nan 307 349 1 12 10 11 11 15 26 36 38 37 35 36 40 37 32 32 32 23 20 38 24 16 15 16 11 10 14 17 9 1 350 339 335 333 331 334 337 334 337 342 360 17 17 13 8 359 342 314
87 83 74 76 93 60 63 31 41 12 41 27 53 55 23 23 1 5 346 355 341 346 349 329 336 340 357 347 nan nan nan nan nan nan 292 305 338 347 1 8 18 356 2 22 31 35 34 42 39 35 27 22 23 21 16 17 24 29 29 23 20 15 16 16 11 12 357 353 347 341 337 339 339 336 336 341 348 347 357 9 13 16 14 8 355
78 72 72 54 42 47 82 21 38 33 22 32 32 39 12 36 4 5 348 349 341 353 346 335 346 349 353 12 nan nan nan nan nan nan 294 311 307 350 342 355 9 344 8 25 17 17 28 29 37 32 27 25 29 11 356 334 331 338 349 17 11 13 355 353 351 355 346 350 349 345 347 343 344 345 345 347 348 346 342 345 350 356 13 25 21
68 65 66 56 59 22 12 48 25 28 25 36 34 37 24 8 10 13 359 1 358 360 346 354 348 359 352 nan nan nan nan nan nan 293 291 315 312 313 313 320 338 314 349 9 21 7 18 22 22 34 29 27 22 13 15 16 3 5 13 13 17 13 6 359 360 356 354 356 353 351 0 355 354 353 353 1 5 354 341 331 323 328 357 34 45
57 59 57 64 45 56 321 75 41 25 37 40 42 26 20 15 9 15 20 27 16 25 7 355 337 353 nan nan nan nan nan nan nan 302 304 300 304 301 315 311 314 323 342 342 1 5 352 16 13 14 21 15 1 6 10 14 18 13 8 16 16 19 10 6 3 357 356 350 349 353 356 351 338 346 344 345 348 347 333 327 328 321 318 345 354
50 48 57 51 54 59 359 31 16 48 39 38 41 34 27 17 23 25 34 44 39 49 36 5 348 nan nan nan nan nan nan nan nan 295 304 300 306 314 301 293 299 301 294 297 309 318 346 344 352 353 359 358 357 359 2 11 11 13 16 14 21 16 6 4 6 356 352 349 340 339 344 310 311 329 314 323 329 324 332 333 334 326 325 321 315
47 44 46 48 55 30 81 51 41 32 42 45 18 23 31 24 32 49 43 48 43 58 46 28 nan nan 263 nan nan nan nan nan 319 nan 317 308 289 286 297 306 nan 292 305 303 306 308 329 311 307 334 333 338 342 352 353 354 356 357 357 356 359 4 360 352 351 346 349 342 342 348 343 330 332 318 327 330 326 324 333 332 331 333 335 331 324
44 40 37 40 39 31 13 42 30 34 49 36 22 13 31 35 41 45 60 57 50 48 nan nan nan nan nan 19 nan nan nan nan 8 nan 329 315 300 296 nan nan nan nan nan 276 292 296 295 305 294 290 313 307 331 339 341 340 341 339 344 341 342 341 339 338 338 341 332 345 320 346 322 324 331 337 335 336 337 336 337 340 333 335 337 328 323
41 36 36 30 29 33 31 24 18 14 23 40 27 24 30 44 54 60 61 59 57 57 43 nan 38 nan 31 nan nan nan 354 nan nan nan nan 321 307 291 nan nan nan nan nan nan 297 305 302 298 305 307 307 314 306 321 325 330 329 329 327 332 328 327 329 327 325 330 335 330 339 339 334 338 334 334 336 341 341 339 338 333 340 337 328 327 324
35 31 31 27 26 24 32 20 21 25 27 30 26 27 38 45 51 62 61 47 56 56 58 nan nan nan nan nan nan nan nan nan nan nan nan 336 316 309 nan nan nan nan nan nan nan nan nan 284 290 302 310 314 312 324 313 308 306 314 319 311 313 316 321 321 323 323 324 331 328 330 327 329 332 334 334 331 331 329 322 321 318 315 315 316 315
28 28 28 25 27 19 27 17 19 14 355 37 33 30 40 51 57 58 60 62 41 41 53 nan 76 nan nan nan nan nan nan nan nan nan nan 6 349 328 302 nan nan nan nan nan nan nan nan 290 291 296 299 300 306 312 323 312 314 315 317 317 318 319 318 320 320 317 320 317 318 317 321 321 323 322 321 314 310 307 309 309 309 307 307 305 305
29 28 28 25 22 23 23 20 9 7 4 14 22 33 48 56 56 58 51 63 51 32 42 nan nan nan 65 nan nan nan nan nan nan nan nan nan nan nan nan nan nan nan nan nan nan nan nan 291 293 297 306 305 305 310 314 323 323 322 322 320 320 323 323 324 323 322 318 318 316 318 320 321 322 322 318 316 312 309 307 306 304 304 302 301 301
30 25 28 27 21 22 20 15 12 7 8 12 14 26 47 60 55 52 43 52 70 54 31 51 nan nan 69 91 89 82 nan nan nan nan nan nan nan nan nan nan nan nan nan nan nan nan nan nan nan 308 nan nan nan 311 314 319 328 327 nan 328 328 327 329 328 328 324 324 322 325 325 325 325 325 324 322 nan 316 310 307 304 302 299 299 298 298
34 24 29 28 24 20 18 19 17 12 4 7 11 25 34 38 54 39 39 13 23 44 25 14 nan nan nan nan 35 59 nan nan nan nan nan nan nan nan nan nan nan nan nan nan nan nan nan nan nan nan nan nan nan 320 nan 318 310 nan nan 329 332 334 331 331 328 nan nan 329 329 332 331 330 nan nan nan nan 323 nan nan nan 309 nan 301 299 295
45 25 27 29 27 20 17 16 20 18 6 8 12 19 25 28 37 35 20 2 2 11 21 13 nan 29 nan nan nan nan 47 nan nan nan nan nan nan nan nan nan nan nan nan nan nan nan nan nan nan nan nan nan nan nan nan nan nan nan nan nan nan nan 331 331 332 333 nan nan nan nan 335 334 334 333 331 332 331 328 326 323 nan 313 308 nan 298
54 30 26 29 25 21 14 13 17 15 10 10 9 14 16 17 19 20 10 356 357 3 21 41 20 19 nan nan 38 nan nan nan 7 17 22 nan nan nan nan nan nan nan nan nan nan nan nan nan nan nan nan 333 nan nan nan nan nan nan nan nan 336 nan nan nan nan nan nan nan nan nan nan nan nan 331 332 331 329 327 327 325 323 321 318 314 308
50 44 22 27 24 19 15 14 13 11 7 9 6 10 8 10 12 13 12 3 360 7 22 32 41 24 15 17 33 24 27 nan nan nan nan 4 8 nan nan nan nan nan nan nan nan nan nan nan nan nan nan nan nan nan nan nan 337 nan nan nan 342 339 337 nan nan nan nan nan nan nan nan nan nan nan nan 327 327 327 327 325 324 324 323 321 318
38 44 37 26 23 16 15 11 14 7 3 2 0 5 7 6 6 7 11 12 6 10 24 26 29 50 21 16 22 25 21 18 nan nan nan nan nan nan nan nan nan nan nan nan nan nan nan nan nan nan nan nan nan nan nan nan nan 329 322 nan 340 344 341 341 341 nan nan nan nan nan nan nan nan nan nan nan nan 330 329 328 327 326 323 321 318
352 16 29 30 15 13 14 10 4 4 359 353 357 3 10 5 2 359 7 15 16 9 29 17 30 28 42 17 23 27 13 nan nan nan 10 17 9 nan 331 303 nan nan nan nan nan nan nan nan nan nan nan nan nan nan nan nan nan 322 337 338 345 348 347 344 345 345 347 345 345 346 347 344 341 339 337 334 333 332 330 nan nan nan nan 315 313
318 1 9 15 358 359 4 2 356 358 356 345 350 356 6 7 359 356 358 4 11 7 15 28 26 30 nan 35 21 nan 25 nan nan nan nan 13 18 24 10 nan nan nan nan nan nan nan nan nan nan nan nan nan nan nan nan nan nan 336 354 344 349 349 349 346 344 345 344 346 347 347 345 344 342 340 337 337 335 333 329 326 321 nan nan nan nan
314 336 344 343 344 347 350 355 353 349 350 347 345 343 357 9 3 352 354 351 359 357 19 31 27 36 38 nan 29 24 22 9 nan 17 4 3 nan nan 16 7 nan nan nan nan nan nan nan nan nan nan nan nan nan nan 343 344 nan 338 356 351 346 348 346 344 344 342 343 346 347 347 346 346 346 343 340 338 336 333 328 323 318 313 309 306 303
305 307 323 319 328 332 340 346 346 344 344 348 345 338 341 357 5 355 351 342 344 354 4 24 22 28 38 41 41 28 nan 13 11 nan 15 2 nan 7 359 7 nan nan nan nan nan nan nan nan nan nan nan nan nan nan nan 344 336 329 338 343 nan 344 344 342 340 341 343 344 345 346 347 348 347 345 341 341 338 335 331 327 322 318 314 309 304
287 295 313 318 318 327 331 339 336 336 339 345 347 340 337 343 351 354 355 334 339 345 354 10 18 19 31 34 37 38 17 21 18 8 nan 9 1 354 354 0 6 nan nan 358 nan nan nan nan nan nan nan nan nan nan nan nan nan 331 339 nan nan 334 336 337 339 340 342 343 344 346 347 348 348 347 345 341 339 335 332 328 325 321 317 313 308
284 293 302 307 311 319 322 328 329 327 332 338 345 342 338 335 336 344 352 345 332 336 339 352 5 9 17 22 23 30 22 14 16 11 2 4 358 351 348 353 358 7 5 nan nan nan nan nan nan nan nan 331 329 334 nan nan 331 330 nan nan nan 329 334 337 338 341 342 342 344 347 348 347 346 345 343 340 336 333 330 327 324 321 318 313 309
292 289 296 305 305 313 313 319 321 325 326 331 336 338 338 334 330 330 338 333 325 322 327 340 352 359 2 7 8 14 17 9 7 7 357 359 4 359 353 349 349 356 359 360 347 nan nan nan nan 329 324 327 326 332 327 nan 316 nan nan nan nan 330 330 nan 337 340 340 342 344 345 346 345 342 342 340 337 333 331 329 327 323 320 317 313 308
296 294 297 303 302 304 307 314 316 320 322 324 324 327 334 334 327 322 324 326 320 320 317 327 341 346 354 357 354 3 5 8 3 2 358 357 5 6 360 352 346 349 351 349 353 344 nan nan nan nan 325 324 332 nan nan 332 325 nan nan nan nan 323 nan 335 nan nan 339 340 343 nan nan nan nan nan nan nan nan 332 330 327 324 321 316 312 308
303 305 302 303 305 307 306 310 315 316 317 318 319 321 325 329 327 322 317 321 320 318 317 320 327 335 345 351 345 347 351 357 2 1 359 356 358 1 1 355 349 346 344 344 350 347 341 nan nan nan nan 325 nan nan 328 nan 320 nan nan 333 324 nan nan 334 nan nan nan nan nan nan nan nan nan nan nan nan nan 334 333 331 328 324 317 313 309
305 306 304 303 302 304 307 305 310 307 308 311 311 313 316 321 322 320 313 314 317 313 312 319 323 329 336 343 342 340 343 351 357 0 357 354 354 355 356 356 355 349 345 346 347 349 340 349 nan nan nan 324 nan nan 329 330 326 nan nan 335 330 334 nan nan 332 nan nan nan nan nan nan nan nan nan nan nan nan nan 336 336 334 330 324 321 317
311 311 309 304 300 302 304 304 303 305 305 308 312 311 313 315 318 313 313 309 311 314 311 313 319 321 328 336 340 338 340 347 354 357 356 352 351 352 351 353 355 351 349 349 351 352 353 344 345 nan 326 nan 326 327 331 333 331 328 nan nan 332 333 333 nan nan 328 nan nan nan nan nan nan nan nan nan nan nan nan nan 340 339 nan 329 325 320
315 316 313 311 305 301 299 298 300 302 302 306 308 310 309 311 312 314 311 309 308 312 317 316 318 321 327 332 338 336 335 343 348 351 353 351 349 351 351 349 352 351 345 349 349 350 353 344 342 345 nan 329 nan 328 331 330 329 328 329 331 330 330 330 331 330 nan nan nan nan nan nan nan nan nan nan nan nan nan nan nan nan nan nan nan nan
319 316 317 316 312 306 303 300 298 298 300 302 305 307 309 309 308 310 309 307 304 307 311 315 316 318 325 327 334 335 335 338 341 343 345 347 347 348 351 348 348 348 342 341 349 349 346 346 337 341 336 332 nan 328 327 326 328 326 326 326 329 331 331 331 331 329 328 nan nan nan nan nan nan nan nan nan nan nan nan nan nan nan nan nan nan
326 320 318 318 316 313 307 304 300 299 300 301 303 306 305 306 308 308 308 306 303 302 305 307 309 314 319 323 327 331 331 333 335 336 338 344 344 344 346 347 346 345 340 338 344 349 350 349 344 337 336 330 330 328 326 325 325 324 323 325 327 330 330 331 327 326 323 335 nan nan nan nan nan nan nan nan nan nan nan nan nan nan nan nan nan
330 327 323 321 320 322 315 311 308 304 300 300 302 304 306 307 307 309 308 307 304 301 302 307 310 310 313 318 321 327 328 330 330 330 331 338 339 340 341 342 344 343 341 338 342 348 350 350 348 341 337 333 329 330 329 327 326 325 323 325 327 328 328 329 329 327 323 nan nan nan nan nan nan nan nan nan nan nan nan nan nan nan nan nan nan
332 331 328 327 326 330 326 323 321 315 310 307 304 305 305 305 306 307 307 307 305 300 301 306 310 312 314 315 319 324 325 325 326 326 327 330 332 336 336 337 340 341 340 337 336 341 345 347 347 347 341 336 333 332 330 329 330 329 327 325 326 326 329 328 328 327 325 327 nan nan nan nan nan nan nan nan nan nan nan nan nan nan nan nan nan
332 332 332 329 329 333 334 334 332 327 325 322 319 317 314 310 308 307 305 303 304 301 301 304 309 314 318 317 319 321 321 318 319 320 321 323 323 329 330 330 334 338 339 337 335 334 336 341 344 344 343 338 334 333 330 332 335 334 331 328 326 324 325 320 323 321 319 328 330 nan nan nan nan nan nan nan nan nan nan nan nan nan nan nan nan
319 326 329 329 329 333 337 339 339 338 340 339 334 331 326 323 317 314 310 306 304 302 301 303 306 309 312 314 314 316 313 312 318 315 318 316 318 322 323 326 330 333 335 334 335 333 332 335 339 339 339 339 337 334 335 335 339 338 333 331 326 324 324 324 321 322 328 332 325 nan nan nan nan nan nan 341 344 nan nan nan nan nan nan nan nan
314 315 314 317 328 333 337 342 343 342 345 343 341 340 331 322 321 313 308 306 304 300 298 298 300 306 311 311 308 315 309 312 311 314 313 314 319 319 318 322 325 328 331 332 331 331 330 331 334 335 336 337 337 336 338 338 336 336 335 330 328 325 325 325 321 328 330 325 323 322 323 nan nan nan nan nan nan nan nan 335 nan nan nan nan nan
310 302 303 316 327 329 336 338 345 345 344 341 339 335 334 331 321 318 313 307 304 300 299 296 294 298 302 308 303 304 304 306 308 312 307 310 316 317 317 322 323 325 327 330 329 327 327 328 329 331 332 334 336 336 337 338 337 336 333 329 328 325 325 326 326 319 321 321 321 322 325 nan nan nan nan nan nan nan nan nan nan nan nan nan nan
300 298 304 311 313 322 325 337 343 342 341 336 331 334 333 333 327 319 316 311 305 303 300 298 294 295 300 302 304 301 305 305 306 303 306 308 312 315 312 316 322 327 326 325 325 324 325 325 326 328 328 330 332 333 335 335 333 334 333 330 327 324 324 327 323 321 315 321 320 322 nan nan nan nan nan nan nan nan nan nan nan nan nan nan nan
297 296 300 305 312 318 323 328 334 334 334 328 325 328 331 331 331 326 317 314 312 309 307 305 301 299 297 299 303 305 304 310 307 305 301 302 307 315 312 313 319 324 325 324 321 320 320 322 323 324 325 324 327 329 330 330 329 334 331 330 327 324 323 322 320 319 nan 317 319 nan nan nan nan nan nan nan nan nan nan nan nan nan nan nan nan
300 301 303 306 305 312 317 319 320 326 333 317 319 322 326 329 330 324 316 317 318 317 316 312 305 305 305 302 303 304 304 298 303 308 305 303 300 301 305 306 312 319 322 323 323 320 313 315 319 320 319 320 320 321 323 325 326 327 328 331 327 324 321 322 318 315 314 nan nan nan nan nan nan nan nan nan nan nan nan nan nan nan nan nan nan
300 299 299 302 305 312 318 318 316 322 328 320 318 322 322 324 325 318 315 318 318 319 319 318 313 312 312 309 308 306 303 298 300 307 304 303 300 301 305 311 313 315 317 319 320 318 316 316 314 315 315 315 317 318 317 320 322 321 322 325 325 321 315 312 313 314 nan nan nan nan nan nan nan nan nan nan nan nan nan nan nan nan nan nan nan
290 291 294 300 306 311 312 313 316 325 329 323 319 323 322 320 319 307 311 317 319 320 321 321 320 318 318 317 312 310 305 303 302 308 302 298 301 303 305 307 308 310 312 314 314 314 315 314 312 312 313 313 315 315 314 317 318 317 316 317 317 315 314 nan nan nan nan nan nan nan nan nan nan nan nan nan nan nan nan nan nan nan nan nan nan
296 300 299 303 301 309 314 313 317 316 320 321 319 324 323 322 313 306 310 312 314 319 319 318 320 323 324 321 316 310 310 309 305 308 302 298 297 299 301 303 303 306 307 305 309 311 311 307 302 299 294 297 300 301 302 305 311 314 315 316 317 nan nan nan nan nan nan nan nan nan nan nan nan nan nan nan nan nan nan nan nan nan nan nan nan
300 300 298 296 301 304 309 314 315 316 320 318 317 323 325 324 320 311 310 311 313 314 314 314 313 314 320 323 316 314 314 311 307 313 306 299 295 295 298 302 303 303 302 302 300 303 305 296 295 296 299 299 300 301 302 303 305 309 313 314 316 nan nan nan nan nan nan nan nan nan nan nan nan nan nan nan nan nan nan nan nan nan nan nan nan
296 292 292 295 298 300 307 312 312 316 318 314 314 319 323 323 321 310 310 308 310 312 311 309 310 306 307 306 315 316 315 309 309 313 311 304 298 298 301 301 300 302 301 300 299 298 294 296 294 294 293 296 298 299 299 302 nan 308 309 311 nan nan nan nan nan nan nan nan nan nan nan nan nan nan nan nan nan nan nan nan nan nan nan nan nan